Home > Time Zones > World Clock > Weather > Chile > Arica > Past weeks

Flag for Chile Weather past 2 weeks in Arica, Chile

Now
66 °F

Overcast.


Feels Like: 66 °F
Forecast: 60 / 67 °F
Wind: 3 mph from Southwest

Location: Arica Airport

Current Time: Oct 25, 2014 at 9:36:23 PM

Latest Report: Oct 25, 2014 at 9:00 PM


Visibility: N/A

Pressure: 30.07 "Hg

Humidity: 68%

Dew point: 55 °F

Location of AricaLocation

Historic Weather in Arica — Graph

°F

Arica temperature yesterday

Maximum temperature yesterday: 68 °F (at 12:00 PM)
Minimum temperature yesterday: 64 °F (at 1:00 AM)
Average temperature yesterday: 66 °F

Past Weeks' High & Low Weather Summary

 TemperatureHumidityPressure
High72 °F (Oct 20, 1:00 PM)88% (Oct 15, 6:00 AM)30.09 "Hg (Oct 15, 6:00 AM)
Low55 °F (Oct 18, 7:00 AM)53% (Oct 20, 1:00 PM)29.86 "Hg (Oct 22, 4:00 PM)
Average65 °F70%29.97 "Hg
* Reported Oct 10 8:00 PM — Oct 25 8:00 PM, Arica, Weather by CustomWeather, © 2014

Note: Actual official high and low records may vary slightly from our data, if they occured in-between our weather recording intervals... More about our weather records

Advertising

Arica weather history for previous 24 hours

 ConditionsComfort  
Time TempWeatherWind HumidityBarometerVisibility
8:00 PM
Oct 25
66 °FOvercast.6 mph68%30.07 "HgN/A
7:00 PM66 °FOvercast.7 mph68%30.04 "HgN/A
6:00 PM68 °FOvercast.9 mph60%30.01 "HgN/A
5:00 PM68 °FPartly sunny.12 mph60%29.98 "HgN/A
4:00 PM70 °FScattered clouds.13 mph60%29.98 "HgN/A
3:00 PM72 °FPassing clouds.13 mph53%29.98 "HgN/A
2:00 PM70 °FScattered clouds.13 mph57%29.98 "HgN/A
1:00 PM68 °FPartly sunny.8 mph64%29.98 "HgN/A
12:00 PM66 °FOvercast.6 mph64%30.01 "HgN/A
11:00 AM66 °FOvercast.5 mph68%30.01 "HgN/A
10:00 AM64 °FOvercast.3 mph73%30.01 "HgN/A
9:00 AM64 °FOvercast.No wind73%29.98 "HgN/A
8:00 AM64 °FOvercast.No wind73%29.98 "HgN/A
7:00 AM64 °FOvercast.1 mph73%29.95 "HgN/A
6:00 AM64 °FOvercast.2 mph73%29.95 "HgN/A
5:00 AM64 °FOvercast.2 mph73%29.92 "HgN/A
4:00 AM66 °FOvercast.3 mph68%29.92 "HgN/A
3:00 AM66 °FOvercast.3 mph68%29.95 "HgN/A
2:00 AM66 °FOvercast.2 mph68%29.95 "HgN/A
1:00 AM66 °FOvercast.5 mph68%29.95 "HgN/A
12:00 AM66 °FOvercast.7 mph68%29.95 "HgN/A
11:00 PM
Oct 24
66 °FOvercast.5 mph68%29.95 "HgN/A
10:00 PM66 °FOvercast.5 mph68%29.95 "HgN/A
9:00 PM66 °FPassing clouds.8 mph68%29.92 "HgN/A
Weather by CustomWeather, © 2014

See weather overviewHow to use our weather pages